Home > Weather > Rüsselsheim > Past weeks

Flag for Germany Past Weather in Rüsselsheim, Hesse, Germany — Yesterday and Last 2 Weeks

Now
70 °F

Clear.


Feels Like: 70 °F
Forecast: 59 / 91 °F
Wind: 7 mph from East

Location: Wiesbaden Airport

Current Time: Aug 25, 2016 at 6:55:20 AM

Latest Report: Aug 25, 2016 at 5:58 AM


Visibility: N/A

Pressure: 30.09 "Hg

Humidity: 57%

Dew Point: 54 °F

Location of RüsselsheimLocation

Past Weather in Rüsselsheim — Graph

°F

Rüsselsheim Temperature Yesterday

Maximum temperature yesterday: 88 °F (at 4:58 PM)
Minimum temperature yesterday: 57 °F (at 5:58 AM)
Average temperature yesterday: 74 °F

High & Low Weather Summary for the Past Weeks

 TemperatureHumidityPressure
High88 °F (Aug 24, 4:58 PM)89% (Aug 22, 6:58 AM)30.39 "Hg (Aug 22, 6:58 AM)
Low46 °F (Aug 11, 3:58 AM)22% (Aug 16, 5:58 PM)29.79 "Hg (Aug 18, 5:58 PM)
Average66 °F59%30.11 "Hg
* Reported Aug 10 5:58 AM — Aug 25 5:58 AM, Rüsselsheim, Weather by CustomWeather, © 2016

Note: Actual official high and low records may vary slightly from our data, if they occured in-between our weather recording intervals... More about our weather records

Advertising

Rüsselsheim Weather History for the Previous 24 Hours

Scroll right to see more
 ConditionsComfort  
Time TempWeatherWind HumidityBarometerVisibility
5:58 AM
Thu, Aug 25
70 °FClear.7 mph57%30.09 "HgN/A
4:58 AM70 °FClear.9 mph57%30.09 "HgN/A
3:58 AM72 °FClear.8 mph53%30.10 "HgN/A
2:58 AM72 °FClear.8 mph53%30.10 "HgN/A
1:58 AM71 °FClear.7 mph54%30.11 "HgN/A
12:58 AM72 °FClear.7 mph57%30.11 "HgN/A
11:58 PM
Wed, Aug 24
73 °FClear.6 mph51%30.13 "HgN/A
10:58 PM77 °FClear.7 mph44%30.13 "HgN/A
9:58 PM77 °FClear.7 mph45%30.13 "HgN/A
8:58 PM80 °FSunny.7 mph41%30.13 "HgN/A
7:58 PM82 °FSunny.8 mph37%30.13 "HgN/A
6:58 PM86 °FSunny.10 mph31%30.13 "HgN/A
5:58 PM88 °FSunny.9 mph29%30.13 "HgN/A
4:58 PM88 °FSunny.8 mph31%30.15 "HgN/A
3:58 PM86 °FSunny.9 mph33%30.16 "HgN/A
2:58 PM85 °FSunny.8 mph33%30.18 "HgN/A
1:03 PM82 °FPleasantly warm.9 mph37%30.21 "HgN/A
12:58 PM82 °FSunny.10 mph39%30.21 "HgN/A
11:58 AM79 °FSunny.9 mph44%30.23 "HgN/A
10:58 AM76 °FSunny.10 mph49%30.23 "HgN/A
9:58 AM73 °FSunny.10 mph50%30.24 "HgN/A
8:58 AM70 °FSunny.8 mph56%30.25 "HgN/A
7:58 AM66 °FSunny.No wind64%30.24 "HgN/A
6:58 AM57 °FClear.2 mph75%30.24 "HgN/A
Weather by CustomWeather, © 2016

See weather overviewHow to use our weather pages